Regional Weather Roundup
Issued by NWS

Home | Current Version | Previous Version | Text Only | Print | Product List | Glossary Off
Versions: 1 2 3 4 5 6 7 8 9 10 11 12 13 14 15 16 17 18 19 20 21 22 23 24 25 26 27

000
ASUS45 KBOU 271707
RWRCO

WEATHER ROUNDUP FOR COLORADO
NATIONAL WEATHER SERVICE DENVER/BOULDER CO
1100 AM MDT SAT MAY 27 2017

NOTE: "FAIR" INDICATES FEW OR NO CLOUDS BELOW 12000 FEET WITH NO
SIGNIFICANT WEATHER AND/OR OBSTRUCTIONS TO VISIBILITY.

COZ001>005-013-030-031-271800-
...NORTHWEST COLORADO...

CITY           SKY/WX    TMP DP  RH WIND       PRES   REMARKS
CRAIG          CLOUDY    48  40  73 CALM      30.19R
HAYDEN         PTSUNNY   45  36  70 S3        30.20R
MEEKER         LGT RAIN  48  37  65 E6        30.20R
RABBIT EARS PA NOT AVBL
STEAMBOAT SPGS NOT AVBL
WALDEN         NOT AVBL
$$

COZ006>008-011-271800-
...WEST CENTRAL VALLEYS...

CITY           SKY/WX    TMP DP  RH WIND       PRES   REMARKS
GRAND JUNCTION FAIR      66  31  27 NW10G21   30.10S
MONTROSE       FAIR      60  33  36 NE5       30.15R
EAGLE          NOT AVBL
RIFLE          FAIR      60  33  36 VRB5      30.13S
DELTA          FAIR      68  32  26 SE3       30.10F
NUCLA          FAIR      63  30  29 CALM      30.15F
$$

COZ017>023-064>068-271800-
...SOUTHWEST COLORADO...

CITY           SKY/WX    TMP DP  RH WIND       PRES   REMARKS
DURANGO        FAIR      66  26  22 W15G23    30.11F
CORTEZ         FAIR      66  30  26 VRB3G17   30.12S
PAGOSA SPRINGS FAIR      60  19  20 CALM      30.16F
TELLURIDE      FAIR      52  29  40 N7        30.25R
WOLF CREEK PAS NOT AVBL
$$

COZ009-010-012-014-032>034-037-058>063-271800-
...CENTRAL COLORADO...

CITY           SKY/WX    TMP DP  RH WIND       PRES   REMARKS
ASPEN          RAIN      39  35  86 NE7G18    30.21R FOG
BUENA VISTA    CLOUDY    49  32  52 NW22G38   30.15R
COPPER MTN     NOT AVBL
BERTHOUD PASS  NOT AVBL
COTTONWOOD PAS NOT AVBL
GUNNISON       PTSUNNY   53  34  48 N9        30.15S
KREMMLING      NOT AVBL
LEADVILLE      CLOUDY    42  28  57 N10       30.18F
SALIDA         PTSUNNY   62  26  25 W17G30    30.17S
SUNLIGHT       NOT AVBL
WILKERSON PASS NOT AVBL
$$

COZ069>075-271800-
...SAN LUIS VALLEY/SANGRE DE CRISTO MOUNTAINS...

CITY           SKY/WX    TMP DP  RH WIND       PRES   REMARKS
ALAMOSA        FAIR      63  19  18 VRB6      30.09S
DEL NORTE      NOT AVBL
LA VETA PASS   NOT AVBL
SAGUACHE       NOT AVBL
$$

COZ035-036-038>040-271800-
...NORTHERN COLORADO FRONT RANGE...

CITY           SKY/WX    TMP DP  RH WIND       PRES   REMARKS
DENVER INTL AP PTSUNNY   54  42  64 N10       30.11R
DMNS CITY PARK   N/A     55  42  63 NE15      30.10S
AURORA         PTSUNNY   54  43  65 NE9       30.11S
FRONT RANGE AP PTSUNNY   54  46  76 N10       30.12R
ERIE MUNI ARPT NOT AVBL
BOULDER MUN AP NOT AVBL
CENTENNIAL     CLOUDY    51  44  77 NE7       30.11R
BROOMFIELD     CLOUDY    55  46  71 N12       30.11R
FORT COLLINS   CLOUDY    55  44  66 NE3       30.11S
LONGMONT       NOT AVBL
$$

COZ041-046-047-076>085-087-088-271800-
...PIKES PEAK/PALMER DIVIDE AND SOUTHERN FOOTHILLS...

CITY           SKY/WX    TMP DP  RH WIND       PRES   REMARKS
COLO. SPRINGS  PTSUNNY   57  37  47 E9        30.11R
A. F. ACADEMY  CLOUDY    55  36  49 CALM      30.10S
SCHRIEVER AFB  PTSUNNY   57  38  50 NE12G22   30.11R
CHEYENNE MTN   CLOUDY    53  37  53 S5        30.07S
ELLICOTT       PTSUNNY  N/A N/A N/A NE14G21   30.09R
FALCON         CLOUDY    55  37  50 NE10      30.14S
FORT CARSON    CLOUDY    60  38  44 E3        30.08S
LIMON          PTSUNNY   60  44  55 N18G28    30.09R
MONUMENT HILL  NOT AVBL
CANON CITY     NOT AVBL
WALSENBURG     NOT AVBL
TRINIDAD       PTSUNNY   59  44  57 CALM      30.07F
$$

COZ042>045-048>051-090-091-271800-
...NORTHEAST COLORADO...

CITY           SKY/WX    TMP DP  RH WIND       PRES   REMARKS
GREELEY ARPT   PTSUNNY   58  46  64 SE5       30.10S
AKRON          LGT RAIN  53  45  74 N20       30.09R
BURLINGTON     FAIR      61  50  67 N16G25    30.03S
WRAY           CLOUDY    61  50  67 N17G23    30.05R
YUMA           NOT AVBL
STERLING       NOT AVBL
HOLYOKE        NOT AVBL
FORT MORGAN    LGT RAIN  51  45  79 N13       30.11R
$$

COZ086-089-092>099-271800-
...SOUTHEAST COLORADO...

CITY           SKY/WX    TMP DP  RH WIND       PRES   REMARKS
PUEBLO         FAIR      64  45  49 E8        30.04F
LA JUNTA       CLOUDY    65  49  56 N9        30.03S
LAMAR          CLOUDY    66  50  56 N12       29.99S
SPRINGFIELD      N/A     64  53  67 NE13G22   30.01R
$$




USA.gov is the U.S. government's official web portal to all federal, state and local government web resources and services.